Belen, NM

5:33 PM MDT on March 22, 2017 (GMT -0600)
Belen

Weather History for KE80 - October, 2012

Change the Weather History Date:

Tuesday, October 9, 2012

  Actual Average (KABQ) Record (KABQ)
Temperature  
Mean Temperature 70 °F -  
Max Temperature 82 °F 74 °F 87 °F (1978)
Min Temperature 57 °F 45 °F 31 °F (1970)
Cooling Degree Days 4    
Growing Degree Days 20 (Base 50)    
Moisture  
Dew Point 30 °F    
Average Humidity 25    
Maximum Humidity 39    
Minimum Humidity 14    
Precipitation  
Precipitation 0.00 in - - ()
Sea Level Pressure  
Sea Level Pressure 30.09 in    
Wind  
Wind Speed 8 mph (West)    
Max Wind Speed 17 mph    
Max Gust Speed 18 mph    
Visibility 10 miles    
Events      
Averages and records for this station are not official NWS values.
T = Trace of Precipitation, MM = Missing Value Source: NWS Daily Summary

Daily Weather History Graph

Daily Weather History Graph

Search for Another Location

Airport or City:

Trip Planner

Search our weather history database for the weather conditions in past years. The results will help you decide how hot, cold, wet, or windy it might be!

Date:

Astronomy

Oct. 09, 2012 Rise Set
Actual Time 7:08 AM MDT 6:39 PM MDT
Civil Twilight 6:43 AM MDT 7:04 PM MDT
Nautical Twilight 6:14 AM MDT 7:34 PM MDT
Astronomical Twilight 5:44 AM MDT 8:03 PM MDT
Moon 1:02 AM MDT (10/9) 2:55 PM MDT (10/9)
Length of Visible Light 12h 21m
Length of Day
11h 31m
Last Quarter, 36% of the Moon is Illuminated
Oct 9
Last Quarter
Oct 15
New
Oct 21
First Quarter
Oct 29
Full
Nov 6
Last Quarter

Hourly Weather History & Observations

Time (MDT) Temp. Dew Point Humidity Pressure Visibility Wind Dir Wind Speed Gust Speed Precip Events Conditions
12:15 AM 58.8 °F 23.0 °F 25% 30.08 in 10.0 mi NW 5.8 mph - N/A   Clear
12:55 AM 60.1 °F 23.5 °F 25% 30.08 in 10.0 mi WNW 11.5 mph - N/A   Clear
1:35 AM 62.6 °F 27.9 °F 27% 30.08 in 10.0 mi West 11.5 mph - N/A   Clear
1:55 AM 62.2 °F 28.8 °F 28% 30.08 in 10.0 mi West 10.4 mph - N/A   Clear
2:15 AM 63.1 °F 29.3 °F 28% 30.08 in 10.0 mi NW 12.7 mph - N/A   Clear
2:35 AM 64.4 °F 29.5 °F 27% 30.08 in 10.0 mi WNW 11.5 mph 18.4 mph N/A   Clear
2:55 AM 63.7 °F 29.8 °F 28% 30.08 in 10.0 mi WNW 13.8 mph - N/A   Clear
3:15 AM 63.3 °F 30.2 °F 29% 30.08 in 10.0 mi WNW 12.7 mph - N/A   Clear
3:35 AM 62.8 °F 30.6 °F 30% 30.08 in 10.0 mi WNW 13.8 mph - N/A   Clear
3:55 AM 62.6 °F 30.9 °F 30% 30.08 in 10.0 mi WNW 13.8 mph - N/A   Clear
4:15 AM 63.1 °F 31.3 °F 30% 30.08 in 10.0 mi WNW 17.3 mph - N/A   Clear
4:35 AM 62.1 °F 31.5 °F 32% 30.08 in 10.0 mi WNW 15.0 mph - N/A   Clear
4:55 AM 61.5 °F 31.6 °F 33% 30.08 in 10.0 mi WNW 15.0 mph - N/A   Clear
5:15 AM 61.2 °F 31.8 °F 33% 30.09 in 10.0 mi WNW 12.7 mph - N/A   Clear
5:55 AM 61.2 °F 31.8 °F 33% 30.09 in 10.0 mi West 13.8 mph - N/A   Clear
6:15 AM 61.2 °F 32.0 °F 33% 30.09 in 10.0 mi West 12.7 mph 18.4 mph N/A   Clear
6:35 AM 60.8 °F 32.0 °F 34% 30.11 in 10.0 mi WNW 10.4 mph - N/A   Clear
6:55 AM 59.7 °F 32.2 °F 35% 30.11 in 10.0 mi West 5.8 mph - N/A   Clear
7:15 AM 57.4 °F 32.2 °F 39% 30.11 in 10.0 mi SSE 5.8 mph - N/A   Clear
7:35 AM 58.5 °F 32.0 °F 37% 30.12 in 10.0 mi Calm Calm - N/A   Clear
7:55 AM 58.1 °F 32.9 °F 39% 30.12 in 10.0 mi Calm Calm - N/A   Clear
8:15 AM 61.3 °F 33.3 °F 35% 30.12 in 10.0 mi East 4.6 mph - N/A   Clear
8:35 AM 62.4 °F 32.9 °F 33% 30.14 in 10.0 mi ESE 5.8 mph - N/A   Clear
8:55 AM 64.0 °F 33.1 °F 31% 30.14 in 10.0 mi ESE 3.5 mph - N/A   Clear
9:15 AM 65.7 °F 33.6 °F 30% 30.15 in 10.0 mi SE 3.5 mph - N/A   Clear
9:35 AM 67.6 °F 33.8 °F 29% 30.15 in 10.0 mi ESE 3.5 mph - N/A   Clear
9:55 AM 69.6 °F 34.3 °F 27% 30.14 in 10.0 mi SSE 5.8 mph - N/A   Clear
10:15 AM 70.9 °F 34.2 °F 26% 30.14 in 10.0 mi SW 8.1 mph - N/A   Clear
10:35 AM 71.8 °F 34.9 °F 26% 30.14 in 10.0 mi ESE 5.8 mph - N/A   Clear
10:55 AM 72.3 °F 34.5 °F 25% 30.14 in 10.0 mi Calm Calm - N/A   Clear
11:15 AM 72.3 °F 34.2 °F 25% 30.13 in 10.0 mi NNE 4.6 mph - N/A   Clear
11:35 AM 73.6 °F 34.0 °F 23% 30.12 in 10.0 mi Calm Calm - N/A   Clear
11:55 AM 75.0 °F 33.3 °F 22% 30.12 in 10.0 mi North 3.5 mph - N/A   Clear
12:15 PM 76.1 °F 32.2 °F 20% 30.12 in 10.0 mi West 4.6 mph - N/A   Clear
12:35 PM 77.5 °F 32.0 °F 19% 30.10 in 10.0 mi SSW 6.9 mph - N/A   Clear
12:55 PM 77.5 °F 29.7 °F 17% 30.09 in 10.0 mi North 4.6 mph - N/A   Clear
1:15 PM 79.0 °F 28.9 °F 16% 30.09 in 10.0 mi West 9.2 mph - N/A   Clear
1:35 PM 79.7 °F 28.8 °F 16% 30.08 in 10.0 mi West 15.0 mph - N/A   Clear
1:55 PM 80.6 °F 28.8 °F 15% 30.07 in 10.0 mi NW 15.0 mph 18.4 mph N/A   Clear
2:15 PM 81.1 °F 28.2 °F 14% 30.07 in 10.0 mi WNW 15.0 mph - N/A   Clear
2:35 PM 80.8 °F 28.0 °F 15% 30.06 in 10.0 mi West 8.1 mph - N/A   Clear
2:55 PM 80.8 °F 27.5 °F 14% 30.05 in 10.0 mi West 9.2 mph - N/A   Clear
3:15 PM 81.0 °F 28.2 °F 15% 30.05 in 10.0 mi NW 8.1 mph - N/A   Clear
3:35 PM 81.5 °F 27.1 °F 14% 30.04 in 10.0 mi West 11.5 mph 17.3 mph N/A   Clear
3:55 PM 81.7 °F 27.5 °F 14% 30.04 in 10.0 mi West 5.8 mph - N/A   Clear
4:15 PM 82.0 °F 27.9 °F 14% 30.03 in 10.0 mi West 9.2 mph 17.3 mph N/A   Clear
4:35 PM 82.0 °F 27.9 °F 14% 30.03 in 10.0 mi SSW 10.4 mph - N/A   Clear
4:55 PM 81.3 °F 27.9 °F 14% 30.03 in 10.0 mi WSW 5.8 mph - N/A   Clear
5:15 PM 81.0 °F 27.9 °F 14% 30.03 in 10.0 mi NNW 4.6 mph - N/A   Clear
5:35 PM 80.8 °F 28.2 °F 15% 30.03 in 10.0 mi Calm Calm - N/A   Clear
5:55 PM 80.1 °F 28.2 °F 15% 30.03 in 10.0 mi WSW 3.5 mph - N/A   Clear
6:15 PM 79.2 °F 28.2 °F 15% 30.03 in 10.0 mi Calm Calm - N/A   Clear
6:35 PM 76.1 °F 26.6 °F 16% 30.03 in 10.0 mi West 6.9 mph - N/A   Clear
6:55 PM 72.3 °F 25.7 °F 18% 30.04 in 10.0 mi West 6.9 mph - N/A   Clear
7:15 PM 70.0 °F 26.2 °F 19% 30.04 in 10.0 mi West 6.9 mph - N/A   Clear
7:35 PM 66.6 °F 25.7 °F 21% 30.06 in 10.0 mi South 6.9 mph - N/A   Clear
7:55 PM 69.8 °F 29.7 °F 22% 30.07 in 10.0 mi SSW 9.2 mph - N/A   Clear
8:15 PM 65.8 °F 29.3 °F 25% 30.08 in 10.0 mi SSW 5.8 mph - N/A   Clear
8:35 PM 68.0 °F 29.5 °F 24% 30.08 in 10.0 mi SW 9.2 mph - N/A   Clear
8:55 PM 64.9 °F 29.3 °F 26% 30.08 in 10.0 mi SSW 8.1 mph - N/A   Clear
9:15 PM 63.5 °F 28.9 °F 27% 30.09 in 10.0 mi NE 4.6 mph - N/A   Clear
9:35 PM 67.5 °F 28.9 °F 24% 30.10 in 10.0 mi NNW 3.5 mph - N/A   Clear
9:55 PM 66.6 °F 28.9 °F 24% 30.11 in 10.0 mi Calm Calm - N/A   Clear
10:15 PM 62.1 °F 28.6 °F 28% 30.11 in 10.0 mi SSE 5.8 mph - N/A   Clear
10:35 PM 59.0 °F 28.2 °F 31% 30.11 in 10.0 mi South 3.5 mph - N/A   Clear
10:55 PM 62.6 °F 28.8 °F 28% 30.11 in 10.0 mi Calm Calm - N/A   Clear
11:15 PM 62.2 °F 28.4 °F 28% 30.12 in 10.0 mi South 3.5 mph - N/A   Clear
11:35 PM 60.3 °F 28.0 °F 29% 30.12 in 10.0 mi South 3.5 mph - N/A   Clear
11:55 PM 60.4 °F 28.0 °F 29% 30.12 in 10.0 mi SE 6.9 mph - N/A   Clear